Wilmington, OH

12:33 PM EDT on October 18, 2017 (GMT -0400)
Airborne

Weather History for KILN - December, 2013

Change the Weather History Date:

Wednesday, December 4, 2013

  Actual Average (KFFO) Record (KFFO)
Temperature  
Mean Temperature 52 °F -  
Max Temperature 60 °F 43 °F 68 °F (1998)
Min Temperature 44 °F 29 °F 14 °F (2002)
Degree Days  
Heating Degree Days 13    
Growing Degree Days 2 (Base 50)    
Moisture  
Dew Point 50 °F    
Average Humidity 86    
Maximum Humidity 97    
Minimum Humidity 77    
Precipitation  
Precipitation 0.00 in - - ()
Sea Level Pressure  
Sea Level Pressure 29.84 in    
Wind  
Wind Speed 7 mph (SSE)    
Max Wind Speed 15 mph    
Max Gust Speed -    
Visibility 9 miles    
Events Rain    
Averages and records for this station are not official NWS values.
T = Trace of Precipitation, MM = Missing Value Source: NWS Daily Summary

Daily Weather History Graph

Daily Weather History Graph

Search for Another Location

Airport or City:

Trip Planner

Search our weather history database for the weather conditions in past years. The results will help you decide how hot, cold, wet, or windy it might be!

Date:

Astronomy

Dec. 04, 2013 Rise Set
Actual Time 7:39 AM EST 5:11 PM EST
Civil Twilight 7:09 AM EST 5:41 PM EST
Nautical Twilight 6:36 AM EST 6:14 PM EST
Astronomical Twilight 6:03 AM EST 6:47 PM EST
Moon 9:06 AM EST (12/4) 7:20 PM EST (12/4)
Length of Visible Light 10h 31m
Length of Day
9h 32m
Waxing Crescent, 4% of the Moon is Illuminated
Dec 4
Waxing Crescent
Dec 9
First Quarter
Dec 17
Full
Dec 25
Last Quarter
Jan 1
New

Hourly Weather History & Observations

Time (EST) Temp. Windchill Dew Point Humidity Pressure Visibility Wind Dir Wind Speed Gust Speed Precip Events Conditions
12:54 AM 46.9 °F - 44.1 °F 90% 29.88 in 9.0 mi South 5.8 mph - N/A   Mostly Cloudy
1:54 AM 46.0 °F 43.9 °F 43.0 °F 89% 29.87 in 9.0 mi SSE 4.6 mph - N/A   Partly Cloudy
2:54 AM 44.1 °F 41.5 °F 42.1 °F 93% 29.87 in 8.0 mi SE 4.6 mph - N/A   Partly Cloudy
3:54 AM 46.0 °F 43.1 °F 44.1 °F 93% 29.88 in 8.0 mi South 5.8 mph - N/A   Overcast
4:54 AM 48.9 °F - 46.0 °F 90% 29.89 in 8.0 mi South 6.9 mph - N/A   Overcast
5:37 AM 48.2 °F - 46.4 °F 93% 29.87 in 8.0 mi South 8.1 mph - N/A   Overcast
5:54 AM 48.9 °F - 46.9 °F 93% 29.91 in 8.0 mi South 4.6 mph - N/A   Overcast
6:06 AM 48.2 °F - 46.4 °F 93% 29.87 in 8.0 mi South 5.8 mph - N/A   Overcast
6:16 AM 48.2 °F - 46.4 °F 93% 29.87 in 8.0 mi South 3.5 mph - N/A   Overcast
6:54 AM 46.9 °F - 45.0 °F 93% 29.90 in 6.0 mi SSE 3.5 mph - N/A   Clear
7:54 AM 45.0 °F 42.6 °F 44.1 °F 97% 29.91 in 4.0 mi SE 4.6 mph - N/A   Clear
8:54 AM 48.0 °F - 46.9 °F 96% 29.93 in 5.0 mi SSE 4.6 mph - N/A   Scattered Clouds
9:54 AM 52.0 °F - 48.9 °F 89% 29.92 in 8.0 mi SSE 8.1 mph - N/A   Mostly Cloudy
10:05 AM 51.8 °F - 48.2 °F 88% 29.89 in 8.0 mi SSE 8.1 mph - N/A   Mostly Cloudy
10:54 AM 54.0 °F - 50.0 °F 86% 29.91 in 9.0 mi SSE 9.2 mph - N/A   Mostly Cloudy
11:49 AM 57.2 °F - 51.8 °F 82% 29.85 in 9.0 mi SSE 8.1 mph - N/A   Overcast
11:54 AM 57.0 °F - 52.0 °F 83% 29.87 in 10.0 mi SSE 8.1 mph - N/A   Overcast
12:20 PM 57.2 °F - 51.8 °F 82% 29.83 in 10.0 mi SSE 8.1 mph - N/A   Overcast
12:28 PM 57.2 °F - 51.8 °F 82% 29.83 in 10.0 mi SSE 10.4 mph - N/A   Overcast
12:36 PM 57.2 °F - 53.6 °F 88% 29.83 in 7.0 mi South 11.5 mph - 0.00 in Rain Light Rain
12:54 PM 57.0 °F - 54.0 °F 89% 29.84 in 8.0 mi South 8.1 mph - 0.00 in   Overcast
1:45 PM 57.2 °F - 53.6 °F 88% 29.79 in 10.0 mi SSE 11.5 mph - N/A   Overcast
1:54 PM 57.9 °F - 54.0 °F 87% 29.81 in 10.0 mi SSE 9.2 mph - N/A   Overcast
2:54 PM 60.1 °F - 54.0 °F 80% 29.80 in 10.0 mi South 9.2 mph - N/A   Overcast
3:17 PM 60.8 °F - 53.6 °F 77% 29.77 in 10.0 mi SSE 9.2 mph - N/A   Overcast
3:54 PM 60.1 °F - 54.0 °F 80% 29.79 in 10.0 mi SSE 10.4 mph - N/A   Overcast
4:42 PM 60.8 °F - 53.6 °F 77% 29.75 in - SSE 10.4 mph - N/A   Mostly Cloudy
4:54 PM 59.0 °F - 54.0 °F 83% 29.78 in - North - - N/A   Mostly Cloudy
5:02 PM 59.0 °F - 53.6 °F 82% 29.76 in 7.0 mi North - - N/A   Scattered Clouds
5:54 PM 57.9 °F - 53.1 °F 84% 29.78 in 10.0 mi SSE 9.2 mph - N/A   Mostly Cloudy
6:54 PM 57.0 °F - 52.0 °F 83% 29.79 in 10.0 mi SSE 9.2 mph - N/A   Scattered Clouds
7:54 PM 57.0 °F - 52.0 °F 83% 29.79 in 10.0 mi SSE 10.4 mph - N/A   Scattered Clouds
8:54 PM 57.9 °F - 52.0 °F 81% 29.78 in 10.0 mi South 12.7 mph - N/A   Clear
9:54 PM 57.9 °F - 52.0 °F 81% 29.78 in 10.0 mi South 12.7 mph - N/A   Clear
10:54 PM 59.0 °F - 53.1 °F 81% 29.79 in 10.0 mi South 13.8 mph - N/A   Partly Cloudy
11:54 PM 59.0 °F - 54.0 °F 83% 29.80 in 9.0 mi South 15.0 mph - N/A   Clear